Flag for Canada Weather past 2 weeks in Yarmouth County, Nova Scotia, Canada

Now
68 °F

Fog.


Feels Like: 68 °F
Forecast: 65 / 73 °F
Wind: 18 mph from Southwest

Location: Yarmouth

Current Time: Aug 4, 2015 at 1:10:38 AM

Latest Report: Aug 4, 2015 at 12:00 AM


Visibility: 5 mi

Pressure: 29.90 "Hg

Humidity: 94%

Dew point: 66 °F

Location of Yarmouth CountyLocation

Historic Weather in Yarmouth County — Graph

°F

Yarmouth County temperature yesterday

Maximum temperature yesterday: 73 °F (at 11:00 AM)
Minimum temperature yesterday: 55 °F (at 3:00 AM)
Average temperature yesterday: 65 °F

Past Weeks' High & Low Weather Summary

 TemperatureHumidityPressure
High79 °F (Aug 1, 2:00 PM)100% (Jul 20, 12:00 AM)30.11 "Hg (Jul 20, 12:00 AM)
Low54 °F (Jul 24, 5:00 AM)50% (Aug 2, 4:00 PM)29.53 "Hg (Jul 22, 6:00 AM)
Average64 °F89%29.85 "Hg
* Reported Midnight between Jul 19 and Jul 20 — Midnight between Aug 3 and Aug 4, Yarmouth County, Weather by CustomWeather, © 2015

Note: Actual official high and low records may vary slightly from our data, if they occured in-between our weather recording intervals... More about our weather records

Advertising

Yarmouth County weather history for previous 24 hours

 ConditionsComfort  
Time TempWeatherWind HumidityBarometerVisibility
12:00 AM
Tue, Aug 4
68 °FFog.18 mph94%29.90 "Hg5 mi
11:00 PM
Mon, Aug 3
66 °FFog.15 mph100%29.90 "Hg1 mi
10:00 PM66 °FFog.18 mph100%29.89 "Hg1 mi
9:00 PM64 °FFog.16 mph100%29.89 "Hg1 mi
8:00 PM66 °FFog.13 mph100%29.89 "Hg0 mi
7:00 PM66 °FFog.12 mph94%29.90 "Hg1 mi
6:00 PM68 °FFog.10 mph94%29.90 "Hg2 mi
5:00 PM68 °FFog.12 mph94%29.91 "Hg1 mi
4:00 PM68 °FFog.13 mph94%29.93 "Hg1 mi
3:00 PM68 °FFog.14 mph94%29.94 "Hg1 mi
2:53 PM70 °FFog.13 mph88%29.94 "Hg1 mi
2:00 PM72 °FFog.12 mph83%29.93 "Hg6 mi
1:00 PM70 °FPartly sunny.16 mph83%29.94 "Hg15 mi
12:00 PM73 °FPassing clouds.14 mph65%29.94 "Hg15 mi
11:00 AM73 °FScattered clouds.9 mph61%29.95 "Hg15 mi
10:00 AM72 °FPassing clouds.7 mph61%29.95 "Hg15 mi
9:00 AM70 °FPassing clouds.5 mph69%29.96 "Hg15 mi
8:00 AM66 °FPassing clouds.5 mph73%29.94 "Hg15 mi
7:00 AM61 °FPassing clouds.5 mph83%29.93 "Hg15 mi
6:00 AM57 °FPassing clouds.7 mph94%29.93 "Hg12 mi
5:00 AM57 °FPassing clouds.6 mph100%29.93 "Hg10 mi
4:00 AM57 °FClear.6 mph100%29.92 "Hg9 mi
3:00 AM55 °FClear.5 mph100%29.92 "Hg8 mi
2:00 AM57 °FFog.3 mph94%29.92 "Hg6 mi
1:00 AM57 °FFog.5 mph100%29.92 "Hg1 mi
Weather by CustomWeather, © 2015

See weather overviewHow to use our weather pages